Philadelphia, PA

7:15 PM EST on November 14, 2019 (GMT -0500)
Philadelphia International

Weather History for KPHL - September, 2019

Change the Weather History Date:

Sunday, September 15, 2019

  Actual Average Record
Temperature  
Mean Temperature 76 °F 70 °F  
Max Temperature 84 °F 78 °F 95 °F (1927)
Min Temperature 68 °F 61 °F 45 °F (1895)
Degree Days  
Heating Degree Days 0 1  
Month to date heating degree days 0 4  
Since 1 July heating degree days 0 5  
Cooling Degree Days 11 5  
Month to date cooling degree days 134 110  
Year to date cooling degree days 1468 1227  
Growing Degree Days 28 (Base 50)    
Moisture  
Dew Point 63 °F    
Average Humidity 63    
Maximum Humidity 93    
Minimum Humidity 32    
Precipitation  
Precipitation 0.06 in 0.13 in 2.74 in (1904)
Month to date precipitation 0.75 1.80  
Year to date precipitation 36.78 29.82  
Snow  
Snow 0.00 in 0.00 in 0.00 in ()
Month to date snowfall 0.0 0.0  
Since 1 July snowfall 0.0 0.0  
Since 1 September snowfall 0.0 0.0  
Snow Depth 0.00 in    
Sea Level Pressure  
Sea Level Pressure 30.14 in    
Wind  
Wind Speed 5 mph (NW)    
Max Wind Speed 12 mph    
Max Gust Speed 17 mph    
Visibility 10 miles    
Events Rain    
T = Trace of Precipitation, MM = Missing Value Source: NWS Daily Summary

Daily Weather History Graph

Daily Weather History Graph

Search for Another Location

Airport or City:

Astronomy

Sep. 15, 2019 Rise Set
Actual Time 6:41 AM EDT 7:10 PM EDT
Civil Twilight 6:14 AM EDT 7:37 PM EDT
Nautical Twilight 5:42 AM EDT 8:08 PM EDT
Astronomical Twilight 5:09 AM EDT 8:41 PM EDT
Moon 8:16 PM EDT 7:49 AM EDT
Length of Visible Light 13h 22m
Length of Day
12h 28m
Full, 98% of the Moon is Illuminated
Sep 15
Full
Sep 21
Last Quarter
Sep 28
New
Oct 5
First Quarter
Oct 13
Full

Hourly Weather History & Observations

Time (EDT) Temp. Heat Index Dew Point Humidity Pressure Visibility Wind Dir Wind Speed Gust Speed Precip Events Conditions
12:33 AM 73.9 °F - 68.0 °F 82% 30.17 in 9.0 mi West 5.8 mph - 0.00 in Rain Light Rain
12:54 AM 72.0 °F - 69.1 °F 91% 30.17 in 7.0 mi WSW 12.7 mph - 0.05 in Rain Rain
12:58 AM 72.0 °F - 69.1 °F 91% 30.17 in 5.0 mi WSW 12.7 mph - 0.03 in Rain Heavy Rain
1:15 AM 71.1 °F - 69.1 °F 93% 30.17 in 10.0 mi WSW 5.8 mph - 0.09 in Rain Light Rain
1:54 AM 72.0 °F - 69.1 °F 91% 30.17 in 10.0 mi SW 5.8 mph - 0.09 in   Overcast
2:29 AM 72.0 °F - 69.1 °F 91% 30.16 in 10.0 mi Calm Calm - N/A   Overcast
2:54 AM 72.0 °F - 69.1 °F 91% 30.16 in 10.0 mi South 3.5 mph - N/A   Overcast
3:29 AM 71.1 °F - 69.1 °F 93% 30.15 in 6.0 mi South 5.8 mph - 0.00 in Rain Light Rain
3:54 AM 71.1 °F - 69.1 °F 93% 30.15 in 6.0 mi SSW 4.6 mph - 0.00 in   Overcast
4:04 AM 71.1 °F - 69.1 °F 93% 30.15 in 10.0 mi SW 4.6 mph - N/A   Overcast
4:54 AM 71.1 °F - 69.1 °F 93% 30.15 in 10.0 mi Calm Calm - N/A   Mostly Cloudy
5:54 AM 71.1 °F - 69.1 °F 93% 30.16 in 10.0 mi NNW 5.8 mph - N/A   Overcast
6:32 AM 71.1 °F - 69.1 °F 93% 30.16 in 10.0 mi Calm Calm - N/A   Mostly Cloudy
6:47 AM 71.1 °F - 69.1 °F 93% 30.16 in 10.0 mi North 4.6 mph - N/A   Mostly Cloudy
6:54 AM 71.1 °F - 69.1 °F 93% 30.16 in 10.0 mi North 4.6 mph - N/A   Mostly Cloudy
7:29 AM 71.1 °F - 68.0 °F 90% 30.16 in 10.0 mi North 5.8 mph - N/A   Mostly Cloudy
7:54 AM 71.1 °F - 68.0 °F 90% 30.16 in 10.0 mi NNW 6.9 mph - N/A   Mostly Cloudy
8:54 AM 72.0 °F - 66.0 °F 81% 30.18 in 10.0 mi NNE 6.9 mph - N/A   Mostly Cloudy
9:54 AM 75.0 °F - 64.9 °F 71% 30.18 in 10.0 mi North 8.1 mph - N/A   Mostly Cloudy
10:54 AM 75.0 °F - 64.0 °F 69% 30.18 in 10.0 mi NNE 4.6 mph - N/A   Mostly Cloudy
11:54 AM 77.0 °F - 61.0 °F 58% 30.17 in 10.0 mi NNE 6.9 mph - N/A   Scattered Clouds
12:54 PM 80.1 °F 81.1 °F 61.0 °F 52% 30.15 in 10.0 mi Variable 4.6 mph - N/A   Scattered Clouds
1:54 PM 81.0 °F 81.0 °F 57.0 °F 44% 30.13 in 10.0 mi Variable 3.5 mph - N/A   Partly Cloudy
2:54 PM 82.9 °F 82.0 °F 55.0 °F 38% 30.11 in 10.0 mi NW 6.9 mph - N/A   Partly Cloudy
3:54 PM 84.0 °F 82.6 °F 54.0 °F 35% 30.10 in 10.0 mi NNW 8.1 mph - N/A   Partly Cloudy
4:54 PM 84.0 °F - 51.1 °F 32% 30.09 in 10.0 mi WNW 8.1 mph - N/A   Partly Cloudy
5:54 PM 82.9 °F - 50.0 °F 32% 30.10 in 10.0 mi NW 8.1 mph - N/A   Partly Cloudy
6:54 PM 80.1 °F - 52.0 °F 38% 30.09 in 10.0 mi NNW 6.9 mph - N/A   Partly Cloudy
7:54 PM 79.0 °F - 52.0 °F 39% 30.09 in 10.0 mi NNW 5.8 mph - N/A   Partly Cloudy
8:54 PM 75.0 °F - 54.0 °F 48% 30.09 in 10.0 mi NNW 4.6 mph - N/A   Partly Cloudy
9:54 PM 73.0 °F - 55.0 °F 53% 30.09 in 10.0 mi Calm Calm - N/A   Scattered Clouds
10:54 PM 72.0 °F - 57.0 °F 59% 30.09 in 10.0 mi Calm Calm - N/A   Mostly Cloudy
11:54 PM 69.1 °F - 62.1 °F 78% 30.10 in 10.0 mi South 3.5 mph - N/A   Mostly Cloudy